Time,TemperatureF,DewpointF,PressureIn,WindDirection,WindDirectionDegrees,WindSpeedMPH,WindSpeedGustMPH,Humidity,HourlyPrecipIn,Conditions,Clouds,dailyrainin,SoftwareType,DateUTC
2013-09-10 00:03:00,80.7,64.5,29.90,South,179,0.0,4.0,58,0.00,,,0.00,LWC2 V0.39 B123,2013-09-10 06:03:00,
2013-09-10 00:08:00,80.6,64.4,29.90,NE,44,1.0,5.0,58,0.00,,,0.00,LWC2 V0.39 B123,2013-09-10 06:08:00,
2013-09-10 00:13:00,80.5,64.3,29.90,SSW,205,3.0,3.0,58,0.00,,,0.00,LWC2 V0.39 B123,2013-09-10 06:13:00,
2013-09-10 00:18:00,80.5,64.3,29.90,WSW,249,3.0,5.0,58,0.00,,,0.00,LWC2 V0.39 B123,2013-09-10 06:18:00,
2013-09-10 00:23:00,80.5,64.8,29.90,SSE,155,4.0,6.0,59,0.00,,,0.00,LWC2 V0.39 B123,2013-09-10 06:23:00,
2013-09-10 00:28:00,80.4,64.7,29.90,SW,228,1.0,4.0,59,0.00,,,0.00,LWC2 V0.39 B123,2013-09-10 06:28:00,
2013-09-10 00:33:00,80.3,64.6,29.90,WSW,252,3.0,6.0,59,0.00,,,0.00,LWC2 V0.39 B123,2013-09-10 06:33:00,
2013-09-10 00:38:00,80.3,64.6,29.90,WSW,245,2.0,5.0,59,0.00,,,0.00,LWC2 V0.39 B123,2013-09-10 06:38:00,
2013-09-10 00:43:00,80.3,64.6,29.91,SSE,166,3.0,8.0,59,0.00,,,0.00,LWC2 V0.39 B123,2013-09-10 06:43:00,
2013-09-10 00:48:00,80.4,64.7,29.90,SSW,195,2.0,5.0,59,0.00,,,0.00,LWC2 V0.39 B123,2013-09-10 06:48:00,
2013-09-10 00:53:00,80.3,64.6,29.91,NE,49,2.0,5.0,59,0.00,,,0.00,LWC2 V0.39 B123,2013-09-10 06:53:00,
2013-09-10 00:58:00,80.3,64.6,29.91,SE,146,1.0,6.0,59,0.00,,,0.00,LWC2 V0.39 B123,2013-09-10 06:58:00,
2013-09-10 01:03:00,80.2,65.0,29.91,South,184,1.0,7.0,60,0.00,,,0.00,LWC2 V0.39 B123,2013-09-10 07:03:00,
2013-09-10 01:08:00,80.3,64.6,29.91,SE,142,3.0,7.0,59,0.00,,,0.00,LWC2 V0.39 B123,2013-09-10 07:08:00,
2013-09-10 01:13:00,80.4,64.7,29.91,SW,227,1.0,8.0,59,0.00,,,0.00,LWC2 V0.39 B123,2013-09-10 07:13:00,
2013-09-10 01:18:00,80.3,64.6,29.91,SW,221,3.0,6.0,59,0.00,,,0.00,LWC2 V0.39 B123,2013-09-10 07:18:00,
2013-09-10 01:23:00,80.3,64.6,29.91,SSW,197,5.0,5.0,59,0.00,,,0.00,LWC2 V0.39 B123,2013-09-10 07:23:00,
2013-09-10 01:28:00,80.3,64.6,29.91,West,276,1.0,4.0,59,0.00,,,0.00,LWC2 V0.39 B123,2013-09-10 07:28:00,
2013-09-10 01:33:00,80.2,65.0,29.91,South,174,2.0,5.0,60,0.00,,,0.00,LWC2 V0.39 B123,2013-09-10 07:33:00,
2013-09-10 01:38:00,80.1,64.9,29.91,South,177,2.0,6.0,60,0.00,,,0.00,LWC2 V0.39 B123,2013-09-10 07:38:00,
2013-09-10 01:43:00,80.0,64.8,29.91,East,94,1.0,5.0,60,0.00,,,0.00,LWC2 V0.39 B123,2013-09-10 07:43:00,
2013-09-10 01:48:00,79.9,64.7,29.91,South,177,3.0,6.0,60,0.00,,,0.00,LWC2 V0.39 B123,2013-09-10 07:48:00,
2013-09-10 01:53:00,79.9,64.7,29.91,West,263,2.0,8.0,60,0.00,,,0.00,LWC2 V0.39 B123,2013-09-10 07:53:00,
2013-09-10 01:58:00,79.8,64.7,29.91,SSW,198,2.0,3.0,60,0.00,,,0.00,LWC2 V0.39 B123,2013-09-10 07:58:00,
2013-09-10 02:03:00,79.7,65.0,29.91,SSW,200,3.0,6.0,61,0.00,,,0.00,LWC2 V0.39 B123,2013-09-10 08:03:00,
2013-09-10 02:08:00,79.6,64.9,29.92,SSE,159,3.0,6.0,61,0.00,,,0.00,LWC2 V0.39 B123,2013-09-10 08:08:00,
2013-09-10 02:13:00,79.5,64.8,29.92,SW,217,7.0,7.0,61,0.00,,,0.00,LWC2 V0.39 B123,2013-09-10 08:13:00,
2013-09-10 02:18:00,79.4,64.8,29.92,South,186,3.0,5.0,61,0.00,,,0.00,LWC2 V0.39 B123,2013-09-10 08:18:00,
2013-09-10 02:23:00,79.3,64.7,29.92,South,183,3.0,4.0,61,0.00,,,0.00,LWC2 V0.39 B123,2013-09-10 08:23:00,
2013-09-10 02:28:00,79.3,64.7,29.92,SSW,200,3.0,5.0,61,0.00,,,0.00,LWC2 V0.39 B123,2013-09-10 08:28:00,
2013-09-10 02:33:00,79.1,64.9,29.92,South,191,2.0,4.0,62,0.00,,,0.00,LWC2 V0.39 B123,2013-09-10 08:33:00,
2013-09-10 02:38:00,79.0,64.8,29.92,South,184,2.0,5.0,62,0.00,,,0.00,LWC2 V0.39 B123,2013-09-10 08:38:00,
2013-09-10 02:43:00,78.9,64.8,29.92,South,184,4.0,5.0,62,0.00,,,0.00,LWC2 V0.39 B123,2013-09-10 08:43:00,
2013-09-10 02:48:00,78.8,64.7,29.92,ESE,104,1.0,5.0,62,0.00,,,0.00,LWC2 V0.39 B123,2013-09-10 08:48:00,
2013-09-10 02:53:00,78.8,64.7,29.92,WSW,249,2.0,5.0,62,0.00,,,0.00,LWC2 V0.39 B123,2013-09-10 08:53:00,
2013-09-10 02:58:00,78.7,64.6,29.92,South,173,1.0,4.0,62,0.00,,,0.00,LWC2 V0.39 B123,2013-09-10 08:58:00,
2013-09-10 03:03:00,78.7,64.6,29.92,East,86,1.0,3.0,62,0.00,,,0.00,LWC2 V0.39 B123,2013-09-10 09:03:00,
2013-09-10 03:08:00,78.8,64.7,29.92,SSE,159,3.0,6.0,62,0.00,,,0.00,LWC2 V0.39 B123,2013-09-10 09:08:00,
2013-09-10 03:13:00,78.9,64.8,29.92,ESE,120,1.0,5.0,62,0.00,,,0.00,LWC2 V0.39 B123,2013-09-10 09:13:00,
2013-09-10 03:18:00,79.0,64.8,29.93,SW,235,2.0,5.0,62,0.00,,,0.00,LWC2 V0.39 B123,2013-09-10 09:18:00,
2013-09-10 03:23:00,79.0,64.8,29.93,SW,221,6.0,8.0,62,0.00,,,0.00,LWC2 V0.39 B123,2013-09-10 09:23:00,
2013-09-10 03:28:00,79.0,64.8,29.93,South,187,3.0,7.0,62,0.00,,,0.00,LWC2 V0.39 B123,2013-09-10 09:28:00,
2013-09-10 03:33:00,78.8,64.7,29.93,SSE,166,2.0,4.0,62,0.00,,,0.00,LWC2 V0.39 B123,2013-09-10 09:33:00,
2013-09-10 03:38:00,78.6,64.5,29.93,SE,141,4.0,9.0,62,0.00,,,0.00,LWC2 V0.39 B123,2013-09-10 09:38:00,
2013-09-10 03:43:00,78.6,64.5,29.93,SW,215,4.0,5.0,62,0.00,,,0.00,LWC2 V0.39 B123,2013-09-10 09:43:00,
2013-09-10 03:48:00,78.7,64.6,29.93,SE,141,2.0,6.0,62,0.00,,,0.00,LWC2 V0.39 B123,2013-09-10 09:48:00,
2013-09-10 03:53:00,78.7,64.6,29.93,SSE,159,1.0,5.0,62,0.00,,,0.00,LWC2 V0.39 B123,2013-09-10 09:53:00,
2013-09-10 03:58:00,78.8,64.2,29.94,South,187,2.0,5.0,61,0.00,,,0.00,LWC2 V0.39 B123,2013-09-10 09:58:00,
2013-09-10 04:03:00,78.9,64.3,29.94,SW,231,6.0,7.0,61,0.00,,,0.00,LWC2 V0.39 B123,2013-09-10 10:03:00,
2013-09-10 04:08:00,79.0,64.4,29.94,West,264,2.0,8.0,61,0.00,,,0.00,LWC2 V0.39 B123,2013-09-10 10:08:00,
2013-09-10 04:13:00,78.9,64.3,29.94,SSE,158,2.0,5.0,61,0.00,,,0.00,LWC2 V0.39 B123,2013-09-10 10:13:00,
2013-09-10 04:18:00,78.8,64.2,29.94,South,180,4.0,6.0,61,0.00,,,0.00,LWC2 V0.39 B123,2013-09-10 10:18:00,
2013-09-10 04:23:00,78.8,64.2,29.94,WSW,253,8.0,8.0,61,0.00,,,0.00,LWC2 V0.39 B123,2013-09-10 10:23:00,
2013-09-10 04:28:00,78.8,64.2,29.94,SW,229,4.0,8.0,61,0.00,,,0.00,LWC2 V0.39 B123,2013-09-10 10:28:00,
2013-09-10 04:33:00,78.8,64.2,29.94,WSW,257,4.0,6.0,61,0.00,,,0.00,LWC2 V0.39 B123,2013-09-10 10:33:00,
2013-09-10 04:38:00,78.8,64.2,29.94,SSE,157,2.0,5.0,61,0.00,,,0.00,LWC2 V0.39 B123,2013-09-10 10:38:00,
2013-09-10 04:43:00,78.6,64.0,29.95,SE,129,2.0,7.0,61,0.00,,,0.00,LWC2 V0.39 B123,2013-09-10 10:43:00,
2013-09-10 04:48:00,78.5,64.4,29.95,South,190,2.0,2.0,62,0.00,,,0.00,LWC2 V0.39 B123,2013-09-10 10:48:00,
2013-09-10 04:53:00,78.3,64.2,29.95,SW,226,2.0,6.0,62,0.00,,,0.00,LWC2 V0.39 B123,2013-09-10 10:53:00,
2013-09-10 04:58:00,78.1,64.0,29.95,NNW,346,2.0,3.0,62,0.00,,,0.00,LWC2 V0.39 B123,2013-09-10 10:58:00,
2013-09-10 05:03:00,77.9,64.3,29.95,SSW,212,5.0,5.0,63,0.00,,,0.00,LWC2 V0.39 B123,2013-09-10 11:03:00,
2013-09-10 05:08:00,77.7,64.1,29.95,NE,38,1.0,5.0,63,0.00,,,0.00,LWC2 V0.39 B123,2013-09-10 11:08:00,
2013-09-10 05:14:00,77.4,64.2,29.96,SW,231,3.0,3.0,64,0.00,,,0.00,LWC2 V0.39 B123,2013-09-10 11:14:00,
2013-09-10 05:19:00,77.2,64.1,29.96,NE,40,2.0,6.0,64,0.00,,,0.00,LWC2 V0.39 B123,2013-09-10 11:19:00,
2013-09-10 05:24:00,77.0,64.3,29.96,South,183,1.0,4.0,65,0.00,,,0.00,LWC2 V0.39 B123,2013-09-10 11:24:00,
2013-09-10 05:29:00,76.7,64.5,29.96,South,184,2.0,3.0,66,0.00,,,0.00,LWC2 V0.39 B123,2013-09-10 11:29:00,
2013-09-10 05:34:00,76.4,64.2,29.96,NNE,12,2.0,4.0,66,0.00,,,0.00,LWC2 V0.39 B123,2013-09-10 11:34:00,
2013-09-10 05:39:00,76.2,64.4,29.97,WSW,246,1.0,5.0,67,0.00,,,0.00,LWC2 V0.39 B123,2013-09-10 11:39:00,
2013-09-10 05:44:00,76.0,64.2,29.97,West,268,2.0,4.0,67,0.00,,,0.00,LWC2 V0.39 B123,2013-09-10 11:44:00,
2013-09-10 05:49:00,75.8,64.5,29.97,SSW,197,3.0,5.0,68,0.00,,,0.00,LWC2 V0.39 B123,2013-09-10 11:49:00,
2013-09-10 05:54:00,75.7,64.4,29.97,SSW,192,1.0,5.0,68,0.00,,,0.00,LWC2 V0.39 B123,2013-09-10 11:54:00,
2013-09-10 05:59:00,75.5,64.2,29.97,SSE,155,3.0,6.0,68,0.00,,,0.00,LWC2 V0.39 B123,2013-09-10 11:59:00,
2013-09-10 06:04:00,75.4,64.5,29.98,SW,221,0.0,5.0,69,0.00,,,0.00,LWC2 V0.39 B123,2013-09-10 12:04:00,
2013-09-10 06:09:00,75.3,64.4,29.98,South,176,8.0,8.0,69,0.00,,,0.00,LWC2 V0.39 B123,2013-09-10 12:09:00,
2013-09-10 06:14:00,75.3,64.4,29.98,South,188,6.0,6.0,69,0.00,,,0.00,LWC2 V0.39 B123,2013-09-10 12:14:00,
2013-09-10 06:19:00,75.4,64.5,29.98,South,179,1.0,6.0,69,0.00,,,0.00,LWC2 V0.39 B123,2013-09-10 12:19:00,
2013-09-10 06:24:00,75.4,64.9,29.98,South,172,1.0,3.0,70,0.00,,,0.00,LWC2 V0.39 B123,2013-09-10 12:24:00,
2013-09-10 06:29:00,75.4,64.9,29.98,SE,136,0.0,2.0,70,0.00,,,0.00,LWC2 V0.39 B123,2013-09-10 12:29:00,
2013-09-10 06:34:00,75.5,65.0,29.99,NNW,329,0.0,2.0,70,0.00,,,0.00,LWC2 V0.39 B123,2013-09-10 12:34:00,
2013-09-10 06:39:00,75.7,65.2,29.99,WNW,297,0.0,1.0,70,0.00,,,0.00,LWC2 V0.39 B123,2013-09-10 12:39:00,
2013-09-10 06:44:00,76.0,65.1,29.99,SSE,155,1.0,4.0,69,0.00,,,0.00,LWC2 V0.39 B123,2013-09-10 12:44:00,
2013-09-10 06:49:00,76.3,65.4,29.99,NE,44,0.0,2.0,69,0.00,,,0.00,LWC2 V0.39 B123,2013-09-10 12:49:00,
2013-09-10 06:54:00,76.5,65.6,29.99,ENE,63,1.0,2.0,69,0.00,,,0.00,LWC2 V0.39 B123,2013-09-10 12:54:00,
2013-09-10 06:59:00,76.7,65.3,29.99,South,188,1.0,2.0,68,0.00,,,0.00,LWC2 V0.39 B123,2013-09-10 12:59:00,
2013-09-10 07:04:00,76.8,65.4,29.99,WNW,283,0.0,2.0,68,0.00,,,0.00,LWC2 V0.39 B123,2013-09-10 13:04:00,
2013-09-10 07:09:00,77.0,65.6,30.00,WSW,257,2.0,2.0,68,0.00,,,0.00,LWC2 V0.39 B123,2013-09-10 13:09:00,
2013-09-10 07:14:00,77.3,65.9,30.00,SE,136,1.0,2.0,68,0.00,,,0.00,LWC2 V0.39 B123,2013-09-10 13:14:00,
2013-09-10 07:19:00,77.5,66.1,30.00,NW,317,0.0,2.0,68,0.00,,,0.00,LWC2 V0.39 B123,2013-09-10 13:19:00,
2013-09-10 07:24:00,77.6,66.2,30.00,West,266,2.0,4.0,68,0.00,,,0.00,LWC2 V0.39 B123,2013-09-10 13:24:00,
2013-09-10 07:29:00,77.6,66.2,30.00,NW,309,0.0,3.0,68,0.00,,,0.00,LWC2 V0.39 B123,2013-09-10 13:29:00,
2013-09-10 07:34:00,77.6,66.2,30.00,NW,309,0.0,1.0,68,0.00,,,0.00,LWC2 V0.39 B123,2013-09-10 13:34:00,
2013-09-10 07:39:00,77.7,66.3,30.00,NW,321,0.0,3.0,68,0.00,,,0.00,LWC2 V0.39 B123,2013-09-10 13:39:00,
2013-09-10 07:44:00,78.5,66.6,30.00,SE,145,1.0,1.0,67,0.00,,,0.00,LWC2 V0.39 B123,2013-09-10 13:44:00,
2013-09-10 07:49:00,79.5,66.7,30.00,NNW,335,1.0,4.0,65,0.00,,,0.00,LWC2 V0.39 B123,2013-09-10 13:49:00,
2013-09-10 07:54:00,80.5,67.2,30.01,NNW,329,1.0,2.0,64,0.00,,,0.00,LWC2 V0.39 B123,2013-09-10 13:54:00,
2013-09-10 07:59:00,81.5,67.7,30.01,WNW,291,1.0,5.0,63,0.00,,,0.00,LWC2 V0.39 B123,2013-09-10 13:59:00,
2013-09-10 08:04:00,81.9,67.6,30.01,WSW,248,1.0,4.0,62,0.00,,,0.00,LWC2 V0.39 B123,2013-09-10 14:04:00,
2013-09-10 08:09:00,82.5,67.7,30.01,SSW,195,2.0,5.0,61,0.00,,,0.00,LWC2 V0.39 B123,2013-09-10 14:09:00,
2013-09-10 08:14:00,83.1,67.7,30.01,NW,316,2.0,3.0,60,0.00,,,0.00,LWC2 V0.39 B123,2013-09-10 14:14:00,
2013-09-10 08:19:00,83.4,67.5,30.01,SSE,154,4.0,12.0,59,0.00,,,0.00,LWC2 V0.39 B123,2013-09-10 14:19:00,
2013-09-10 08:24:00,83.9,67.5,30.01,SSE,165,6.0,6.0,58,0.00,,,0.00,LWC2 V0.39 B123,2013-09-10 14:24:00,
2013-09-10 08:29:00,84.2,67.8,30.02,WSW,255,1.0,6.0,58,0.00,,,0.00,LWC2 V0.39 B123,2013-09-10 14:29:00,
2013-09-10 08:34:00,84.6,67.7,30.02,SE,125,2.0,5.0,57,0.00,,,0.00,LWC2 V0.39 B123,2013-09-10 14:34:00,
2013-09-10 08:39:00,85.1,68.1,30.02,WNW,295,2.0,6.0,57,0.00,,,0.00,LWC2 V0.39 B123,2013-09-10 14:39:00,
2013-09-10 08:44:00,85.6,68.1,30.02,SW,224,3.0,8.0,56,0.00,,,0.00,LWC2 V0.39 B123,2013-09-10 14:44:00,
2013-09-10 08:49:00,86.2,68.6,30.02,WNW,285,2.0,4.0,56,0.00,,,0.00,LWC2 V0.39 B123,2013-09-10 14:49:00,
2013-09-10 08:54:00,86.7,68.6,30.02,NW,320,1.0,4.0,55,0.00,,,0.00,LWC2 V0.39 B123,2013-09-10 14:54:00,
2013-09-10 08:59:00,87.2,69.0,30.03,WNW,300,2.0,7.0,55,0.00,,,0.00,LWC2 V0.39 B123,2013-09-10 14:59:00,
2013-09-10 09:04:00,87.5,69.3,30.03,ESE,115,3.0,4.0,55,0.00,,,0.00,LWC2 V0.39 B123,2013-09-10 15:04:00,
2013-09-10 09:09:00,87.9,68.6,30.03,WSW,239,2.0,4.0,53,0.00,,,0.00,LWC2 V0.39 B123,2013-09-10 15:09:00,
2013-09-10 09:14:00,88.1,68.8,30.03,South,177,3.0,6.0,53,0.00,,,0.00,LWC2 V0.39 B123,2013-09-10 15:14:00,
2013-09-10 09:19:00,87.9,68.6,30.03,WSW,241,2.0,5.0,53,0.00,,,0.00,LWC2 V0.39 B123,2013-09-10 15:19:00,
2013-09-10 09:24:00,88.0,69.2,30.03,ENE,61,1.0,2.0,54,0.00,,,0.00,LWC2 V0.39 B123,2013-09-10 15:24:00,
2013-09-10 09:29:00,88.7,68.8,30.02,NW,312,1.0,5.0,52,0.00,,,0.00,LWC2 V0.39 B123,2013-09-10 15:29:00,
2013-09-10 09:34:00,89.2,69.2,30.03,NNW,327,2.0,3.0,52,0.00,,,0.00,LWC2 V0.39 B123,2013-09-10 15:34:00,
2013-09-10 09:39:00,89.4,68.8,30.03,SSW,203,2.0,5.0,51,0.00,,,0.00,LWC2 V0.39 B123,2013-09-10 15:39:00,
2013-09-10 09:44:00,90.2,69.0,30.03,SSW,211,8.0,8.0,50,0.00,,,0.00,LWC2 V0.39 B123,2013-09-10 15:44:00,
2013-09-10 09:49:00,90.0,68.2,30.02,South,170,3.0,5.0,49,0.00,,,0.00,LWC2 V0.39 B123,2013-09-10 15:49:00,
2013-09-10 09:54:00,90.3,68.5,30.03,WNW,291,3.0,10.0,49,0.00,,,0.00,LWC2 V0.39 B123,2013-09-10 15:54:00,
2013-09-10 09:59:00,90.2,67.8,30.02,West,273,3.0,5.0,48,0.00,,,0.00,LWC2 V0.39 B123,2013-09-10 15:59:00,
2013-09-10 10:04:00,90.1,68.3,30.03,NNW,338,2.0,3.0,49,0.00,,,0.00,LWC2 V0.39 B123,2013-09-10 16:04:00,
2013-09-10 10:09:00,90.6,68.2,30.03,WNW,295,2.0,3.0,48,0.00,,,0.00,LWC2 V0.39 B123,2013-09-10 16:09:00,
2013-09-10 10:14:00,91.1,68.0,30.03,SSW,205,3.0,8.0,47,0.00,,,0.00,LWC2 V0.39 B123,2013-09-10 16:14:00,
2013-09-10 10:19:00,90.7,67.7,30.03,SSW,211,4.0,10.0,47,0.00,,,0.00,LWC2 V0.39 B123,2013-09-10 16:19:00,
2013-09-10 10:24:00,90.6,67.6,30.03,SW,219,5.0,9.0,47,0.00,,,0.00,LWC2 V0.39 B123,2013-09-10 16:24:00,
2013-09-10 10:29:00,90.9,68.4,30.03,WSW,242,5.0,9.0,48,0.00,,,0.00,LWC2 V0.39 B123,2013-09-10 16:29:00,
2013-09-10 10:34:00,91.4,68.3,30.03,NNW,340,1.0,7.0,47,0.00,,,0.00,LWC2 V0.39 B123,2013-09-10 16:34:00,
2013-09-10 10:39:00,91.7,68.6,30.03,NW,310,1.0,3.0,47,0.00,,,0.00,LWC2 V0.39 B123,2013-09-10 16:39:00,
2013-09-10 10:44:00,91.9,68.7,30.03,NNW,331,1.0,8.0,47,0.00,,,0.00,LWC2 V0.39 B123,2013-09-10 16:44:00,
2013-09-10 10:49:00,92.5,68.7,30.03,SW,226,3.0,5.0,46,0.00,,,0.00,LWC2 V0.39 B123,2013-09-10 16:49:00,
2013-09-10 10:54:00,93.3,68.1,30.03,WSW,239,2.0,6.0,44,0.00,,,0.00,LWC2 V0.39 B123,2013-09-10 16:54:00,
2013-09-10 10:59:00,93.6,69.0,30.03,SE,139,1.0,5.0,45,0.00,,,0.00,LWC2 V0.39 B123,2013-09-10 16:59:00,
2013-09-10 11:04:00,93.6,67.7,30.03,SSW,201,6.0,7.0,43,0.00,,,0.00,LWC2 V0.39 B123,2013-09-10 17:04:00,
2013-09-10 11:09:00,93.1,68.6,30.03,SSW,195,7.0,8.0,45,0.00,,,0.00,LWC2 V0.39 B123,2013-09-10 17:09:00,
2013-09-10 11:14:00,93.3,68.1,30.02,ESE,104,4.0,9.0,44,0.00,,,0.00,LWC2 V0.39 B123,2013-09-10 17:14:00,
2013-09-10 11:19:00,93.2,67.3,30.02,West,271,2.0,10.0,43,0.00,,,0.00,LWC2 V0.39 B123,2013-09-10 17:19:00,
2013-09-10 11:24:00,93.2,67.3,30.02,SSE,151,4.0,10.0,43,0.00,,,0.00,LWC2 V0.39 B123,2013-09-10 17:24:00,
2013-09-10 11:29:00,93.1,67.9,30.02,ESE,120,6.0,11.0,44,0.00,,,0.00,LWC2 V0.39 B123,2013-09-10 17:29:00,
2013-09-10 11:34:00,93.1,67.9,30.02,SW,233,2.0,9.0,44,0.00,,,0.00,LWC2 V0.39 B123,2013-09-10 17:34:00,
2013-09-10 11:39:00,93.7,68.4,30.02,NW,311,3.0,8.0,44,0.00,,,0.00,LWC2 V0.39 B123,2013-09-10 17:39:00,
2013-09-10 11:44:00,94.3,68.3,30.02,SE,139,5.0,14.0,43,0.00,,,0.00,LWC2 V0.39 B123,2013-09-10 17:44:00,
2013-09-10 11:49:00,94.5,67.8,30.02,NE,49,2.0,9.0,42,0.00,,,0.00,LWC2 V0.39 B123,2013-09-10 17:49:00,
2013-09-10 11:54:00,94.2,66.8,30.01,SE,145,3.0,4.0,41,0.00,,,0.00,LWC2 V0.39 B123,2013-09-10 17:54:00,
2013-09-10 11:59:00,94.5,67.1,30.02,NW,319,3.0,12.0,41,0.00,,,0.00,LWC2 V0.39 B123,2013-09-10 17:59:00,
2013-09-10 12:04:00,93.9,66.6,30.01,East,98,4.0,8.0,41,0.00,,,0.00,LWC2 V0.39 B123,2013-09-10 18:04:00,
2013-09-10 12:09:00,93.8,67.2,30.01,SE,125,5.0,6.0,42,0.00,,,0.00,LWC2 V0.39 B123,2013-09-10 18:09:00,
2013-09-10 12:14:00,94.1,65.3,30.01,SE,142,2.0,6.0,39,0.00,,,0.00,LWC2 V0.39 B123,2013-09-10 18:14:00,
2013-09-10 12:19:00,95.0,65.4,30.01,SSW,198,8.0,12.0,38,0.00,,,0.00,LWC2 V0.39 B123,2013-09-10 18:19:00,
2013-09-10 12:24:00,94.9,66.0,30.01,East,92,4.0,15.0,39,0.00,,,0.00,LWC2 V0.39 B123,2013-09-10 18:24:00,
2013-09-10 12:29:00,95.0,66.1,30.01,WNW,283,3.0,8.0,39,0.00,,,0.00,LWC2 V0.39 B123,2013-09-10 18:29:00,
2013-09-10 12:34:00,94.7,65.8,30.01,SW,218,5.0,6.0,39,0.00,,,0.00,LWC2 V0.39 B123,2013-09-10 18:34:00,
2013-09-10 12:39:00,94.8,65.9,30.01,SSW,205,7.0,7.0,39,0.00,,,0.00,LWC2 V0.39 B123,2013-09-10 18:39:00,
2013-09-10 12:44:00,94.3,65.5,30.01,South,191,5.0,7.0,39,0.00,,,0.00,LWC2 V0.39 B123,2013-09-10 18:44:00,
2013-09-10 12:49:00,94.8,64.4,30.00,WSW,248,8.0,8.0,37,0.00,,,0.00,LWC2 V0.39 B123,2013-09-10 18:49:00,
2013-09-10 12:54:00,94.7,62.7,30.00,SE,143,7.0,10.0,35,0.00,,,0.00,LWC2 V0.39 B123,2013-09-10 18:54:00,
2013-09-10 12:59:00,94.7,63.5,30.00,SW,231,8.0,11.0,36,0.00,,,0.00,LWC2 V0.39 B123,2013-09-10 18:59:00,
2013-09-10 13:04:00,95.3,64.1,30.00,SW,233,8.0,11.0,36,0.00,,,0.00,LWC2 V0.39 B123,2013-09-10 19:04:00,
2013-09-10 13:09:00,95.3,61.6,30.00,SW,222,5.0,11.0,33,0.00,,,0.00,LWC2 V0.39 B123,2013-09-10 19:09:00,
2013-09-10 13:14:00,95.6,64.3,29.99,South,169,4.0,7.0,36,0.00,,,0.00,LWC2 V0.39 B123,2013-09-10 19:14:00,
2013-09-10 13:19:00,95.5,65.0,29.99,NW,313,8.0,8.0,37,0.00,,,0.00,LWC2 V0.39 B123,2013-09-10 19:19:00,
2013-09-10 13:24:00,95.7,64.4,29.99,SE,132,3.0,10.0,36,0.00,,,0.00,LWC2 V0.39 B123,2013-09-10 19:24:00,
2013-09-10 13:29:00,95.2,64.0,29.99,SSE,160,4.0,6.0,36,0.00,,,0.00,LWC2 V0.39 B123,2013-09-10 19:29:00,
2013-09-10 13:34:00,95.6,61.8,29.99,SSW,196,4.0,11.0,33,0.00,,,0.00,LWC2 V0.39 B123,2013-09-10 19:34:00,
2013-09-10 13:39:00,96.6,63.6,29.99,SSW,205,3.0,6.0,34,0.00,,,0.00,LWC2 V0.39 B123,2013-09-10 19:39:00,
2013-09-10 13:44:00,96.9,64.7,29.99,SW,217,8.0,11.0,35,0.00,,,0.00,LWC2 V0.39 B123,2013-09-10 19:44:00,
2013-09-10 13:49:00,96.9,64.7,29.99,SSE,158,4.0,11.0,35,0.00,,,0.00,LWC2 V0.39 B123,2013-09-10 19:49:00,
2013-09-10 13:54:00,97.0,63.1,29.98,SW,221,7.0,9.0,33,0.00,,,0.00,LWC2 V0.39 B123,2013-09-10 19:54:00,
2013-09-10 13:59:00,97.2,63.2,29.98,SSW,208,11.0,12.0,33,0.00,,,0.00,LWC2 V0.39 B123,2013-09-10 19:59:00,
2013-09-10 14:04:00,96.8,63.7,29.98,WSW,239,5.0,11.0,34,0.00,,,0.00,LWC2 V0.39 B123,2013-09-10 20:04:00,
2013-09-10 14:09:00,96.4,63.4,29.98,SW,214,6.0,14.0,34,0.00,,,0.00,LWC2 V0.39 B123,2013-09-10 20:09:00,
2013-09-10 14:14:00,95.9,63.8,29.98,South,191,6.0,12.0,35,0.00,,,0.00,LWC2 V0.39 B123,2013-09-10 20:14:00,
2013-09-10 14:19:00,95.9,63.8,29.98,South,169,3.0,7.0,35,0.00,,,0.00,LWC2 V0.39 B123,2013-09-10 20:19:00,
2013-09-10 14:24:00,95.8,63.7,29.97,South,186,5.0,7.0,35,0.00,,,0.00,LWC2 V0.39 B123,2013-09-10 20:24:00,
2013-09-10 14:29:00,96.4,64.2,29.97,SSW,211,2.0,8.0,35,0.00,,,0.00,LWC2 V0.39 B123,2013-09-10 20:29:00,
2013-09-10 14:34:00,96.8,64.6,29.97,NW,304,4.0,6.0,35,0.00,,,0.00,LWC2 V0.39 B123,2013-09-10 20:34:00,
2013-09-10 14:39:00,96.6,63.6,29.97,South,183,3.0,7.0,34,0.00,,,0.00,LWC2 V0.39 B123,2013-09-10 20:39:00,
2013-09-10 14:44:00,96.6,63.6,29.96,ESE,110,5.0,6.0,34,0.00,,,0.00,LWC2 V0.39 B123,2013-09-10 20:44:00,
2013-09-10 14:49:00,96.5,62.6,29.97,South,177,7.0,9.0,33,0.00,,,0.00,LWC2 V0.39 B123,2013-09-10 20:49:00,
2013-09-10 14:54:00,95.0,63.0,29.96,SE,125,4.0,9.0,35,0.00,,,0.00,LWC2 V0.39 B123,2013-09-10 20:54:00,
2013-09-10 14:59:00,94.4,62.5,29.96,North,355,1.0,9.0,35,0.00,,,0.00,LWC2 V0.39 B123,2013-09-10 20:59:00,
2013-09-10 15:04:00,94.0,62.9,29.96,SSW,205,4.0,7.0,36,0.00,,,0.00,LWC2 V0.39 B123,2013-09-10 21:04:00,
2013-09-10 15:09:00,94.1,63.8,29.96,SSW,205,5.0,10.0,37,0.00,,,0.00,LWC2 V0.39 B123,2013-09-10 21:09:00,
2013-09-10 15:14:00,94.6,63.5,29.96,South,179,2.0,6.0,36,0.00,,,0.00,LWC2 V0.39 B123,2013-09-10 21:14:00,
2013-09-10 15:19:00,95.8,63.7,29.96,SSE,160,4.0,4.0,35,0.00,,,0.00,LWC2 V0.39 B123,2013-09-10 21:19:00,
2013-09-10 15:24:00,96.9,62.1,29.95,SSW,203,4.0,10.0,32,0.00,,,0.00,LWC2 V0.39 B123,2013-09-10 21:24:00,
2013-09-10 15:29:00,96.8,60.2,29.95,West,270,4.0,14.0,30,0.00,,,0.00,LWC2 V0.39 B123,2013-09-10 21:29:00,
2013-09-10 15:34:00,96.3,60.7,29.95,SSW,203,3.0,10.0,31,0.00,,,0.00,LWC2 V0.39 B123,2013-09-10 21:34:00,
2013-09-10 15:39:00,96.3,60.7,29.95,SSW,193,4.0,8.0,31,0.00,,,0.00,LWC2 V0.39 B123,2013-09-10 21:39:00,
2013-09-10 15:44:00,96.0,61.3,29.95,SSW,195,3.0,7.0,32,0.00,,,0.00,LWC2 V0.39 B123,2013-09-10 21:44:00,
2013-09-10 15:49:00,96.4,61.7,29.95,South,176,2.0,6.0,32,0.00,,,0.00,LWC2 V0.39 B123,2013-09-10 21:49:00,
2013-09-10 15:54:00,96.4,60.8,29.95,West,263,5.0,11.0,31,0.00,,,0.00,LWC2 V0.39 B123,2013-09-10 21:54:00,
2013-09-10 15:59:00,96.1,62.3,29.95,ESE,120,2.0,5.0,33,0.00,,,0.00,LWC2 V0.39 B123,2013-09-10 21:59:00,
2013-09-10 16:04:00,95.1,61.4,29.95,South,181,3.0,9.0,33,0.00,,,0.00,LWC2 V0.39 B123,2013-09-10 22:04:00,
2013-09-10 16:09:00,94.8,62.8,29.95,SSE,160,3.0,7.0,35,0.00,,,0.00,LWC2 V0.39 B123,2013-09-10 22:09:00,
2013-09-10 16:14:00,94.7,62.7,29.95,WSW,245,7.0,8.0,35,0.00,,,0.00,LWC2 V0.39 B123,2013-09-10 22:14:00,
2013-09-10 16:19:00,94.3,62.4,29.95,West,259,6.0,9.0,35,0.00,,,0.00,LWC2 V0.39 B123,2013-09-10 22:19:00,
2013-09-10 16:24:00,93.7,62.7,29.95,SE,137,3.0,6.0,36,0.00,,,0.00,LWC2 V0.39 B123,2013-09-10 22:24:00,
2013-09-10 16:29:00,93.0,62.0,29.95,South,169,4.0,8.0,36,0.00,,,0.00,LWC2 V0.39 B123,2013-09-10 22:29:00,
2013-09-10 16:34:00,92.9,63.5,29.95,WNW,302,2.0,2.0,38,0.00,,,0.00,LWC2 V0.39 B123,2013-09-10 22:34:00,
2013-09-10 16:39:00,93.3,63.1,29.95,SE,136,3.0,4.0,37,0.00,,,0.00,LWC2 V0.39 B123,2013-09-10 22:39:00,
2013-09-10 16:44:00,93.0,63.6,29.95,SSE,155,6.0,9.0,38,0.00,,,0.00,LWC2 V0.39 B123,2013-09-10 22:44:00,
2013-09-10 16:49:00,92.7,63.3,29.94,South,179,4.0,7.0,38,0.00,,,0.00,LWC2 V0.39 B123,2013-09-10 22:49:00,
2013-09-10 16:54:00,92.6,63.2,29.94,WNW,284,3.0,5.0,38,0.00,,,0.00,LWC2 V0.39 B123,2013-09-10 22:54:00,
2013-09-10 16:59:00,92.8,63.4,29.95,SW,220,4.0,5.0,38,0.00,,,0.00,LWC2 V0.39 B123,2013-09-10 22:59:00,
2013-09-10 17:04:00,92.6,63.2,29.95,WNW,293,2.0,3.0,38,0.00,,,0.00,LWC2 V0.39 B123,2013-09-10 23:04:00,
2013-09-10 17:09:00,92.1,63.5,29.95,SSW,195,3.0,4.0,39,0.00,,,0.00,LWC2 V0.39 B123,2013-09-10 23:09:00,
2013-09-10 17:14:00,92.0,63.4,29.95,SE,132,3.0,7.0,39,0.00,,,0.00,LWC2 V0.39 B123,2013-09-10 23:14:00,
2013-09-10 17:19:00,92.0,63.4,29.95,WNW,290,2.0,10.0,39,0.00,,,0.00,LWC2 V0.39 B123,2013-09-10 23:19:00,
2013-09-10 17:24:00,92.0,63.4,29.95,SW,221,4.0,6.0,39,0.00,,,0.00,LWC2 V0.39 B123,2013-09-10 23:24:00,
2013-09-10 17:29:00,91.8,63.3,29.95,SSE,156,2.0,3.0,39,0.00,,,0.00,LWC2 V0.39 B123,2013-09-10 23:29:00,
2013-09-10 17:34:00,91.5,63.0,29.95,South,180,4.0,6.0,39,0.00,,,0.00,LWC2 V0.39 B123,2013-09-10 23:34:00,
2013-09-10 17:39:00,90.9,63.2,29.95,SSE,159,1.0,3.0,40,0.00,,,0.00,LWC2 V0.39 B123,2013-09-10 23:39:00,
2013-09-10 17:44:00,90.6,63.6,29.95,SW,233,4.0,6.0,41,0.00,,,0.00,LWC2 V0.39 B123,2013-09-10 23:44:00,
2013-09-10 17:49:00,90.2,63.3,29.95,South,179,1.0,5.0,41,0.00,,,0.00,LWC2 V0.39 B123,2013-09-10 23:49:00,
2013-09-10 17:54:00,89.9,63.7,29.95,SE,132,2.0,3.0,42,0.00,,,0.00,LWC2 V0.39 B123,2013-09-10 23:54:00,
2013-09-10 17:59:00,89.6,63.4,29.95,South,175,2.0,4.0,42,0.00,,,0.00,LWC2 V0.39 B123,2013-09-10 23:59:00,
2013-09-10 18:04:00,89.4,63.2,29.95,South,169,4.0,4.0,42,0.00,,,0.00,LWC2 V0.39 B123,2013-09-11 00:04:00,
2013-09-10 18:09:00,89.1,63.6,29.95,SSE,160,1.0,4.0,43,0.00,,,0.00,LWC2 V0.39 B123,2013-09-11 00:09:00,
2013-09-10 18:14:00,88.9,63.5,29.95,WSW,248,3.0,4.0,43,0.00,,,0.00,LWC2 V0.39 B123,2013-09-11 00:14:00,
2013-09-10 18:19:00,88.6,63.2,29.95,SE,134,2.0,4.0,43,0.00,,,0.00,LWC2 V0.39 B123,2013-09-11 00:19:00,
2013-09-10 18:24:00,88.2,63.5,29.95,SE,125,2.0,5.0,44,0.00,,,0.00,LWC2 V0.39 B123,2013-09-11 00:24:00,
2013-09-10 18:29:00,87.9,63.2,29.95,WSW,238,5.0,6.0,44,0.00,,,0.00,LWC2 V0.39 B123,2013-09-11 00:29:00,
2013-09-10 18:34:00,87.6,63.6,29.95,ESE,115,1.0,4.0,45,0.00,,,0.00,LWC2 V0.39 B123,2013-09-11 00:34:00,
2013-09-10 18:39:00,87.2,63.2,29.96,SSE,165,1.0,3.0,45,0.00,,,0.00,LWC2 V0.39 B123,2013-09-11 00:39:00,
2013-09-10 18:44:00,87.0,63.1,29.96,SE,142,1.0,3.0,45,0.00,,,0.00,LWC2 V0.39 B123,2013-09-11 00:44:00,
2013-09-10 18:49:00,86.6,63.3,29.96,SE,136,1.0,2.0,46,0.00,,,0.00,LWC2 V0.39 B123,2013-09-11 00:49:00,
2013-09-10 18:54:00,86.2,63.6,29.96,SE,134,1.0,2.0,47,0.00,,,0.00,LWC2 V0.39 B123,2013-09-11 00:54:00,
2013-09-10 18:59:00,85.8,63.2,29.96,ESE,118,0.0,2.0,47,0.00,,,0.00,LWC2 V0.39 B123,2013-09-11 00:59:00,
2013-09-10 19:04:00,85.4,63.4,29.97,ESE,105,0.0,2.0,48,0.00,,,0.00,LWC2 V0.39 B123,2013-09-11 01:04:00,
2013-09-10 19:09:00,85.1,63.2,29.97,ESE,105,0.0,2.0,48,0.00,,,0.00,LWC2 V0.39 B123,2013-09-11 01:09:00,
2013-09-10 19:14:00,84.8,63.5,29.97,ESE,110,1.0,2.0,49,0.00,,,0.00,LWC2 V0.39 B123,2013-09-11 01:14:00,
2013-09-10 19:19:00,84.6,63.3,29.97,ESE,115,0.0,1.0,49,0.00,,,0.00,LWC2 V0.39 B123,2013-09-11 01:19:00,
2013-09-10 19:24:00,84.4,63.7,29.97,ESE,118,2.0,2.0,50,0.00,,,0.00,LWC2 V0.39 B123,2013-09-11 01:24:00,
2013-09-10 19:29:00,84.2,63.5,29.97,ESE,117,1.0,3.0,50,0.00,,,0.00,LWC2 V0.39 B123,2013-09-11 01:29:00,
2013-09-10 19:34:00,84.0,63.9,29.97,ESE,108,1.0,2.0,51,0.00,,,0.00,LWC2 V0.39 B123,2013-09-11 01:34:00,
2013-09-10 19:39:00,83.7,63.6,29.97,ESE,104,1.0,2.0,51,0.00,,,0.00,LWC2 V0.39 B123,2013-09-11 01:39:00,
2013-09-10 19:44:00,83.4,63.9,29.98,ESE,111,1.0,2.0,52,0.00,,,0.00,LWC2 V0.39 B123,2013-09-11 01:44:00,
2013-09-10 19:49:00,83.1,63.6,29.98,ESE,107,1.0,1.0,52,0.00,,,0.00,LWC2 V0.39 B123,2013-09-11 01:49:00,
2013-09-10 19:54:00,82.8,63.9,29.98,ESE,110,0.0,2.0,53,0.00,,,0.00,LWC2 V0.39 B123,2013-09-11 01:54:00,
2013-09-10 19:59:00,82.6,63.7,29.98,ESE,113,1.0,1.0,53,0.00,,,0.00,LWC2 V0.39 B123,2013-09-11 01:59:00,
2013-09-10 20:04:00,82.5,64.1,29.99,SE,126,2.0,3.0,54,0.00,,,0.00,LWC2 V0.39 B123,2013-09-11 02:04:00,
2013-09-10 20:09:00,82.4,64.1,29.99,SE,134,1.0,3.0,54,0.00,,,0.00,LWC2 V0.39 B123,2013-09-11 02:09:00,
2013-09-10 20:14:00,82.3,64.5,29.99,ESE,105,2.0,2.0,55,0.00,,,0.00,LWC2 V0.39 B123,2013-09-11 02:14:00,
2013-09-10 20:19:00,82.1,64.3,29.99,SE,136,2.0,3.0,55,0.00,,,0.00,LWC2 V0.39 B123,2013-09-11 02:19:00,
2013-09-10 20:24:00,82.0,64.2,29.99,ESE,110,2.0,3.0,55,0.00,,,0.00,LWC2 V0.39 B123,2013-09-11 02:24:00,
2013-09-10 20:29:00,81.8,64.5,30.00,SE,129,1.0,2.0,56,0.00,,,0.00,LWC2 V0.39 B123,2013-09-11 02:29:00,
2013-09-10 20:34:00,81.6,64.4,30.00,ESE,115,1.0,3.0,56,0.00,,,0.00,LWC2 V0.39 B123,2013-09-11 02:34:00,
2013-09-10 20:39:00,81.5,64.8,30.00,ESE,118,2.0,2.0,57,0.00,,,0.00,LWC2 V0.39 B123,2013-09-11 02:39:00,
2013-09-10 20:44:00,81.3,64.6,30.00,ESE,115,1.0,2.0,57,0.00,,,0.00,LWC2 V0.39 B123,2013-09-11 02:44:00,
2013-09-10 20:49:00,81.1,64.4,30.00,ESE,111,1.0,4.0,57,0.00,,,0.00,LWC2 V0.39 B123,2013-09-11 02:49:00,
2013-09-10 20:54:00,81.1,64.4,30.00,SE,136,2.0,3.0,57,0.00,,,0.00,LWC2 V0.39 B123,2013-09-11 02:54:00,
2013-09-10 20:59:00,81.0,64.8,30.00,ESE,105,3.0,3.0,58,0.00,,,0.00,LWC2 V0.39 B123,2013-09-11 02:59:00,
2013-09-10 21:04:00,80.9,64.7,30.01,SE,135,2.0,3.0,58,0.00,,,0.00,LWC2 V0.39 B123,2013-09-11 03:04:00,
2013-09-10 21:09:00,80.8,64.6,30.01,ESE,118,2.0,2.0,58,0.00,,,0.00,LWC2 V0.39 B123,2013-09-11 03:09:00,
2013-09-10 21:14:00,80.6,64.4,30.01,SE,125,2.0,3.0,58,0.00,,,0.00,LWC2 V0.39 B123,2013-09-11 03:14:00,
2013-09-10 21:19:00,80.3,64.6,30.01,ESE,108,2.0,3.0,59,0.00,,,0.00,LWC2 V0.39 B123,2013-09-11 03:19:00,
2013-09-10 21:24:00,80.0,64.4,30.01,East,83,1.0,3.0,59,0.00,,,0.00,LWC2 V0.39 B123,2013-09-11 03:24:00,
2013-09-10 21:29:00,79.6,64.5,30.01,ESE,122,2.0,3.0,60,0.00,,,0.00,LWC2 V0.39 B123,2013-09-11 03:29:00,
2013-09-10 21:34:00,79.3,64.2,30.01,ESE,118,1.0,3.0,60,0.00,,,0.00,LWC2 V0.39 B123,2013-09-11 03:34:00,
2013-09-10 21:39:00,79.1,64.0,30.01,ESE,110,2.0,3.0,60,0.00,,,0.00,LWC2 V0.39 B123,2013-09-11 03:39:00,
2013-09-10 21:44:00,79.2,64.1,30.01,ESE,113,3.0,4.0,60,0.00,,,0.00,LWC2 V0.39 B123,2013-09-11 03:44:00,
2013-09-10 21:49:00,79.3,64.2,30.01,SE,135,2.0,4.0,60,0.00,,,0.00,LWC2 V0.39 B123,2013-09-11 03:49:00,
2013-09-10 21:54:00,79.5,64.4,30.01,ESE,114,2.0,3.0,60,0.00,,,0.00,LWC2 V0.39 B123,2013-09-11 03:54:00,
2013-09-10 21:59:00,79.4,64.3,30.01,ESE,115,2.0,3.0,60,0.00,,,0.00,LWC2 V0.39 B123,2013-09-11 03:59:00,
2013-09-10 22:01:00,79.3,64.7,30.01,ESE,117,1.0,3.0,61,0.00,,,0.00,LWC2 V0.39 B123,2013-09-11 04:01:00,
2013-09-10 22:02:00,79.3,64.7,30.01,ESE,115,2.0,3.0,61,0.00,,,0.00,LWC2 V0.39 B123,2013-09-11 04:02:00,
2013-09-10 22:04:00,79.1,64.5,30.01,ESE,121,2.0,2.0,61,0.00,,,0.00,LWC2 V0.39 B123,2013-09-11 04:04:00,
2013-09-10 22:08:00,78.7,64.6,30.01,ESE,110,2.0,2.0,62,0.00,,,0.00,LWC2 V0.39 B123,2013-09-11 04:08:00,
2013-09-10 22:10:00,78.4,64.3,30.01,ESE,111,2.0,2.0,62,0.00,,,0.00,LWC2 V0.39 B123,2013-09-11 04:10:00,
2013-09-10 22:13:00,78.1,64.5,30.01,ESE,116,1.0,1.0,63,0.00,,,0.00,LWC2 V0.39 B123,2013-09-11 04:13:00,
2013-09-10 22:18:00,77.7,64.5,30.01,ESE,110,1.0,2.0,64,0.00,,,0.00,LWC2 V0.39 B123,2013-09-11 04:18:00,
2013-09-10 22:23:00,77.8,64.6,30.01,ESE,103,2.0,2.0,64,0.00,,,0.00,LWC2 V0.39 B123,2013-09-11 04:23:00,
2013-09-10 22:28:00,78.0,64.4,30.01,ESE,110,1.0,3.0,63,0.00,,,0.00,LWC2 V0.39 B123,2013-09-11 04:28:00,
2013-09-10 22:33:00,77.9,64.7,30.01,ESE,115,1.0,2.0,64,0.00,,,0.00,LWC2 V0.39 B123,2013-09-11 04:33:00,
2013-09-10 22:38:00,77.6,64.4,30.01,ESE,118,2.0,3.0,64,0.00,,,0.00,LWC2 V0.39 B123,2013-09-11 04:38:00,
2013-09-10 22:43:00,77.4,64.2,30.01,ESE,118,1.0,3.0,64,0.00,,,0.00,LWC2 V0.39 B123,2013-09-11 04:43:00,
2013-09-10 22:48:00,77.2,64.5,30.01,SE,135,1.0,3.0,65,0.00,,,0.00,LWC2 V0.39 B123,2013-09-11 04:48:00,
2013-09-10 22:53:00,77.2,64.5,30.01,ESE,118,1.0,2.0,65,0.00,,,0.00,LWC2 V0.39 B123,2013-09-11 04:53:00,
2013-09-10 22:58:00,77.2,64.5,30.01,ESE,121,2.0,3.0,65,0.00,,,0.00,LWC2 V0.39 B123,2013-09-11 04:58:00,
2013-09-10 23:03:00,77.5,64.3,30.01,East,89,3.0,4.0,64,0.00,,,0.00,LWC2 V0.39 B123,2013-09-11 05:03:00,
2013-09-10 23:08:00,77.8,64.2,30.01,ESE,118,2.0,4.0,63,0.00,,,0.00,LWC2 V0.39 B123,2013-09-11 05:08:00,
2013-09-10 23:13:00,78.0,64.4,30.01,SE,128,2.0,5.0,63,0.00,,,0.00,LWC2 V0.39 B123,2013-09-11 05:13:00,
2013-09-10 23:18:00,78.2,64.1,30.02,SE,141,3.0,3.0,62,0.00,,,0.00,LWC2 V0.39 B123,2013-09-11 05:18:00,
2013-09-10 23:23:00,78.3,64.2,30.02,SE,129,3.0,5.0,62,0.00,,,0.00,LWC2 V0.39 B123,2013-09-11 05:23:00,
2013-09-10 23:28:00,78.2,64.1,30.02,ESE,118,3.0,5.0,62,0.00,,,0.00,LWC2 V0.39 B123,2013-09-11 05:28:00,
2013-09-10 23:33:00,78.1,64.0,30.02,SSE,158,2.0,3.0,62,0.00,,,0.00,LWC2 V0.39 B123,2013-09-11 05:33:00,
2013-09-10 23:38:00,78.1,64.5,30.01,SE,132,2.0,4.0,63,0.00,,,0.00,LWC2 V0.39 B123,2013-09-11 05:38:00,
2013-09-10 23:43:00,78.1,64.5,30.01,SE,134,2.0,3.0,63,0.00,,,0.00,LWC2 V0.39 B123,2013-09-11 05:43:00,
2013-09-10 23:48:00,78.0,64.4,30.02,ESE,109,2.0,3.0,63,0.00,,,0.00,LWC2 V0.39 B123,2013-09-11 05:48:00,
2013-09-10 23:53:00,77.8,64.2,30.01,ESE,109,2.0,3.0,63,0.00,,,0.00,LWC2 V0.39 B123,2013-09-11 05:53:00,
2013-09-10 23:58:00,77.8,64.2,30.02,ESE,118,2.0,5.0,63,0.00,,,0.00,LWC2 V0.39 B123,2013-09-11 05:58:00,